Location: Middlebury
(44.0153°N, 73.1678°W)
Time: 00:16:30
(UTC-04:00)

ISS - Pass Details

Date: 25 June 2021
Orbit: 419 x 421 km, 51.6° (Epoch: 03 August)

Event Time Altitude Azimuth Distance (km) Brightness Sun altitude
Exits shadow 04:22:53 - 183° (S) 2,070 -0.7 -7.6°
Reaches altitude 10° 04:25:03 10° 159° (SSE) 1,493 -1.2 -7.3°
Maximum altitude 04:26:35 13° 131° (SE) 1,345 -1.1 -7.1°
Drops below altitude 10° 04:28:07 10° 104° (ESE) 1,498 -0.5 -6.9°
Sets 04:31:09 0° 74° (ENE) 2,366 1.4 -6.5°
